Back to catalog

QIANFAN-184

AliveCommunicationsPO
NORAD 69402·PAYLOAD·🇨🇳 China

Launched Jun 5, 2026 from Wenchang Space Launch Site

Loading…

Next Passes (next 24 hours)

TLE

FreshSource: Space-Track

Epoch: Sep 14, 2026, 12:54 UTC

1 69402U 26125B   26257.53816621  .00000014  00000-0  37877-5 0  9993
2 69402  88.9883 270.9400 0001925  97.5707 262.5663 13.51028562 14009

Track QIANFAN-184 in real time with AllMySat

Download on the App Store